Meteo pe oră la Almaly

Astăzi, 20 Ianuarie, Miercuri

Timp Temperatura Precipitaţii Vânt Presiune Umiditate
00:00 -19°C° 0 mm 2 m/s 765 mmHg 92%
01:00 -19°C° 0 mm 2 m/s 765 mmHg 93%
02:00 -19°C° 0 mm 2 m/s 765 mmHg 94%
03:00 -21°C° 0 mm 3 m/s 765 mmHg 94%
04:00 -19°C° 0 mm 2 m/s 765 mmHg 95%
05:00 -18°C° 0 mm 2 m/s 765 mmHg 95%
06:00 -18°C° 0 mm 2 m/s 765 mmHg 96%
07:00 -17°C° 0 mm 2 m/s 765 mmHg 95%
08:00 -16°C° 0 mm 2 m/s 765 mmHg 95%
09:00 -15°C° 0 mm 2 m/s 766 mmHg 94%
10:00 -13°C° 0 mm 2 m/s 766 mmHg 92%
11:00 -13°C° 0 mm 3 m/s 766 mmHg 91%
12:00 -12°C° 0 mm 3 m/s 766 mmHg 89%
13:00 -12°C° 0.1 mm 3 m/s 766 mmHg 89%
14:00 -12°C° 0.1 mm 4 m/s 765 mmHg 90%
15:00 -12°C° 0.1 mm 4 m/s 765 mmHg 91%
16:00 -14°C° 0 mm 4 m/s 766 mmHg 92%
17:00 -16°C° 0 mm 4 m/s 766 mmHg 93%
18:00 -18°C° 0 mm 4 m/s 767 mmHg 94%
19:00 -18°C° 0 mm 3 m/s 767 mmHg 94%
20:00 -19°C° 0 mm 3 m/s 767 mmHg 95%
21:00 -21°C° 0 mm 3 m/s 767 mmHg 96%
22:00 -21°C° 0 mm 3 m/s 768 mmHg 96%
23:00 -22°C° 0 mm 3 m/s 768 mmHg 96%

Mâine, 21 Ianuarie, Joi

Timp Temperatura Precipitaţii Vânt Presiune Umiditate
00:00 -23°C° 0 mm 3 m/s 768 mmHg 96%
01:00 -23°C° 0 mm 3 m/s 768 mmHg 96%
02:00 -23°C° 0 mm 3 m/s 768 mmHg 96%
03:00 -24°C° 0 mm 3 m/s 768 mmHg 96%
04:00 -24°C° 0 mm 3 m/s 768 mmHg 95%
05:00 -21°C° 0 mm 2 m/s 769 mmHg 95%
06:00 -21°C° 0 mm 2 m/s 769 mmHg 95%
07:00 -21°C° 0 mm 2 m/s 769 mmHg 95%
08:00 -21°C° 0 mm 2 m/s 769 mmHg 94%
09:00 -23°C° 0 mm 3 m/s 770 mmHg 94%
10:00 -22°C° 0 mm 3 m/s 770 mmHg 92%
11:00 -21°C° 0 mm 3 m/s 770 mmHg 90%
12:00 -19°C° 0 mm 3 m/s 770 mmHg 88%
13:00 -19°C° 0 mm 3 m/s 770 mmHg 89%
14:00 -19°C° 0 mm 3 m/s 770 mmHg 90%
15:00 -19°C° 0 mm 3 m/s 770 mmHg 91%
16:00 -19°C° 0 mm 3 m/s 770 mmHg 92%
17:00 -21°C° 0 mm 3 m/s 770 mmHg 93%
18:00 -22°C° 0 mm 3 m/s 771 mmHg 94%
19:00 -22°C° 0 mm 3 m/s 770 mmHg 94%
20:00 -21°C° 0 mm 3 m/s 770 mmHg 94%
21:00 -22°C° 0 mm 4 m/s 770 mmHg 94%
22:00 -20°C° 0 mm 4 m/s 770 mmHg 94%
23:00 -20°C° 0 mm 4 m/s 770 mmHg 94%

Poimâine, 22 Ianuarie, Vineri

Timp Temperatura Precipitaţii Vânt Presiune Umiditate
00:00 -20°C° 0 mm 4 m/s 770 mmHg 94%
01:00 -19°C° 0 mm 4 m/s 770 mmHg 93%
02:00 -19°C° 0 mm 5 m/s 769 mmHg 93%
03:00 -19°C° 0 mm 5 m/s 769 mmHg 92%
04:00 -18°C° 0 mm 5 m/s 769 mmHg 92%
05:00 -17°C° 0 mm 5 m/s 769 mmHg 92%
06:00 -17°C° 0 mm 5 m/s 768 mmHg 92%
07:00 -16°C° 0.4 mm 6 m/s 768 mmHg 92%
08:00 -16°C° 0.4 mm 6 m/s 768 mmHg 93%
09:00 -15°C° 0.4 mm 6 m/s 768 mmHg 94%
10:00 -14°C° 0.3 mm 6 m/s 767 mmHg 92%
11:00 -14°C° 0.3 mm 6 m/s 767 mmHg 90%
12:00 -12°C° 0.3 mm 6 m/s 767 mmHg 88%
13:00 -12°C° 0 mm 5 m/s 767 mmHg 89%
14:00 -12°C° 0 mm 5 m/s 767 mmHg 89%
15:00 -11°C° 0 mm 4 m/s 767 mmHg 90%
16:00 -12°C° 0 mm 3 m/s 767 mmHg 91%
17:00 -13°C° 0 mm 3 m/s 768 mmHg 92%
18:00 -13°C° 0 mm 2 m/s 768 mmHg 93%
19:00 -13°C° 0 mm 2 m/s 768 mmHg 94%
20:00 -13°C° 0 mm 2 m/s 769 mmHg 94%
21:00 -13°C° 0 mm 2 m/s 769 mmHg 94%
22:00 -11°C° 0 mm 1 m/s 769 mmHg 94%
23:00 -11°C° 0 mm 0 m/s 770 mmHg 95%

23 Ianuarie, Sâmbătă

Timp Temperatura Precipitaţii Vânt Presiune Umiditate
00:00 -12°C° 0 mm 0 m/s 770 mmHg 95%
01:00 -11°C° 0 mm 1 m/s 770 mmHg 95%
02:00 -10°C° 0 mm 1 m/s 770 mmHg 95%
03:00 -12°C° 0 mm 2 m/s 771 mmHg 95%
04:00 -10°C° 0 mm 2 m/s 771 mmHg 95%
05:00 -12°C° 0 mm 3 m/s 772 mmHg 95%
06:00 -12°C° 0 mm 3 m/s 772 mmHg 95%
07:00 -12°C° 0.1 mm 4 m/s 772 mmHg 94%
08:00 -11°C° 0.1 mm 4 m/s 773 mmHg 94%
09:00 -11°C° 0.1 mm 5 m/s 773 mmHg 94%
10:00 -10°C° 0.1 mm 5 m/s 773 mmHg 94%
11:00 -8°C° 0.1 mm 5 m/s 773 mmHg 94%
12:00 -7°C° 0.1 mm 5 m/s 773 mmHg 94%
13:00 -6°C° 0 mm 5 m/s 773 mmHg 94%
14:00 -6°C° 0 mm 5 m/s 773 mmHg 95%
15:00 -5°C° 0 mm 5 m/s 773 mmHg 95%
16:00 -5°C° 0 mm 5 m/s 773 mmHg 95%
17:00 -5°C° 0 mm 5 m/s 773 mmHg 95%
18:00 -5°C° 0 mm 5 m/s 773 mmHg 95%
19:00 -5°C° 0 mm 5 m/s 773 mmHg 95%
20:00 -5°C° 0 mm 5 m/s 773 mmHg 95%
21:00 -5°C° 0 mm 5 m/s 773 mmHg 96%
22:00 -5°C° 0 mm 5 m/s 774 mmHg 96%
23:00 -4°C° 0 mm 5 m/s 774 mmHg 96%

24 Ianuarie, Duminică

Timp Temperatura Precipitaţii Vânt Presiune Umiditate
00:00 -4°C° 0 mm 5 m/s 774 mmHg 96%
01:00 -3°C° 0 mm 4 m/s 774 mmHg 96%
02:00 -3°C° 0 mm 4 m/s 774 mmHg 96%
03:00 -3°C° 0 mm 4 m/s 774 mmHg 96%
04:00 -3°C° 0 mm 4 m/s 774 mmHg 96%
05:00 -3°C° 0 mm 4 m/s 774 mmHg 96%
06:00 -3°C° 0 mm 4 m/s 774 mmHg 96%
07:00 -3°C° 0 mm 4 m/s 774 mmHg 96%
08:00 -3°C° 0 mm 4 m/s 774 mmHg 96%
09:00 -2°C° 0 mm 5 m/s 774 mmHg 95%
10:00 -2°C° 0 mm 5 m/s 774 mmHg 96%
11:00 -2°C° 0 mm 5 m/s 774 mmHg 97%
12:00 -2°C° 0 mm 5 m/s 774 mmHg 98%
13:00 -2°C° 0 mm 4 m/s 774 mmHg 97%
14:00 -2°C° 0 mm 4 m/s 774 mmHg 96%
15:00 -2°C° 0 mm 4 m/s 773 mmHg 94%
16:00 -4°C° 0 mm 4 m/s 773 mmHg 94%
17:00 -5°C° 0 mm 4 m/s 773 mmHg 95%
18:00 -7°C° 0 mm 4 m/s 774 mmHg 95%
19:00 -7°C° 0 mm 4 m/s 774 mmHg 95%
20:00 -7°C° 0 mm 4 m/s 774 mmHg 95%
21:00 -7°C° 0 mm 4 m/s 774 mmHg 95%
22:00 -7°C° 0 mm 4 m/s 774 mmHg 95%
23:00 -7°C° 0 mm 4 m/s 773 mmHg 94%

25 Ianuarie, Luni

Timp Temperatura Precipitaţii Vânt Presiune Umiditate
00:00 -7°C° 0 mm 4 m/s 773 mmHg 94%
01:00 -7°C° 0 mm 4 m/s 773 mmHg 93%
02:00 -8°C° 0 mm 4 m/s 773 mmHg 93%
03:00 -9°C° 0 mm 4 m/s 773 mmHg 93%
04:00 -9°C° 0 mm 4 m/s 773 mmHg 93%
05:00 -10°C° 0 mm 5 m/s 773 mmHg 93%
06:00 -10°C° 0 mm 5 m/s 773 mmHg 94%
07:00 -8°C° 0 mm 5 m/s 773 mmHg 93%
08:00 -8°C° 0 mm 5 m/s 773 mmHg 92%
09:00 -8°C° 0 mm 6 m/s 773 mmHg 92%
10:00 -6°C° 0 mm 6 m/s 773 mmHg 90%
11:00 -5°C° 0 mm 6 m/s 773 mmHg 89%
12:00 -4°C° 0 mm 6 m/s 773 mmHg 88%
13:00 -4°C° 0 mm 6 m/s 772 mmHg 87%
14:00 -4°C° 0 mm 5 m/s 772 mmHg 87%
15:00 -4°C° 0 mm 5 m/s 772 mmHg 86%
16:00 -4°C° 0 mm 5 m/s 772 mmHg 87%
17:00 -5°C° 0 mm 5 m/s 772 mmHg 88%
18:00 -5°C° 0 mm 5 m/s 772 mmHg 88%
19:00 -5°C° 0 mm 5 m/s 772 mmHg 90%
20:00 -5°C° 0 mm 5 m/s 772 mmHg 91%
21:00 -5°C° 0 mm 6 m/s 772 mmHg 93%
22:00 -5°C° 0 mm 6 m/s 772 mmHg 93%
23:00 -5°C° 0 mm 6 m/s 772 mmHg 93%
Arată mai mult

Formular de consimțământ

Meteoprog și furnizorii noștri de servicii pot stoca și accesa date personale, precum cookies, identificatori de dispozitiv sau alte tehnologii similare pe dispozitivul dumneavoastră și procesa astfel de date pentru a personaliza conținutul și reclamele, dar și pentru a oferi caracteristici de social media și pentru a analiza traficul.

  • Stocarea și/sau accesarea informațiilor pe dispozitivul dumneavoastră

    Cookies, identificatori de dispozitiv sau alte informații pot fi stocate sau accesate pe dispozitiv în scopurile indicate mai sus.

  • Reclame și conținut personalizat, evaluarea reclamelor și a conținutului, informații despre audiențe și dezvoltarea produselor

    Reclamele și conținutul pot fi personalizate pe baza unui profil. Pot fi adăugate date suplimentare pentru a personaliza mai bine reclamele și conținutul. Performanța reclamelor și conținutului poate fi măsurată. Pot fi obținute informații despre utilizatorii care au văzut reclamele și conținutul. Aceste date pot fi utilizate pentru a dezvolta sau îmbunătăți experiența utilizatorilor, sistemele și software-ul.

Dând clic pe ‘Sunt de acord’, permiteți utilizarea cookie-urilor menționate, a identificatorilor de dispozitiv, balizelor web sau altor tehnologii similare. Setările pot fi modificate din browser-ul dispozitivului dumneavoastră.

În anumite scopuri, interesele legitime pot prima asupra consimțământului. Puteți citi mai multe informații în acest sens în Politica privind Confidențialitatea Datelor și Cookie.